[[{"header":{"parameterUnit":"m.s-1","parameterCategory":1,"la1":30.2991,"la2":30.254,"lo1":-89.0895,"lo2":-89.0444,"dy":0.0017,"dx":0.0017,"nx":28,"ny":28,"refTime":"2024-10-14T21:00:00:Z","depth":0,"parameterNumber":2,"parameterNumberName":"U-component_of_WINDS"},"data":[0,0,0,0,0,0,0,0,0,0,0,0,0,0,0,0,0,0,0,0,0,0,0,0,0,0,0,0,0,0,0,0,0,0,0,0,0,0,0,0,0,0,0,0,0,0,0,0,0,0,0,0,0,0,0,0,0,0,-3.4709,-3.471,0,-3.482,-3.4821,-3.4823,-3.4804,-3.4802,-3.48,-3.4798,-3.4911,-3.4916,-3.4921,0,0,0,0,0,0,0,0,0,0,0,0,0,-3.4481,-3.4485,-3.4709,-3.471,-3.4712,-3.482,-3.4822,-3.4823,-3.4804,-3.4801,-3.4799,-3.4797,-3.491,-3.4915,-3.4921,0,0,0,0,0,0,0,0,0,0,0,0,0,-3.4585,-3.4486,-3.4709,-3.4715,-3.4717,-3.482,-3.4822,-3.4823,-3.4804,-3.4801,-3.4799,-3.4796,-3.4908,-3.4915,-3.4922,-3.5025,0,0,-3.4944,-3.4947,0,0,0,0,0,0,0,0,-3.4579,-3.4593,-3.4713,-3.4715,-3.4717,-3.4795,-3.4783,-3.4891,-3.4805,-3.4771,-3.4798,-3.4794,-3.4875,-3.4885,-3.4912,-3.503,-3.5035,-3.4945,-3.4949,-3.4952,-3.4954,0,0,0,0,0,0,0,-3.4571,-3.4588,-3.4753,-3.4715,-3.4717,-3.4713,-3.4724,-3.4803,-3.4838,-3.4774,-3.4773,-3.4786,-3.4876,-3.4905,-3.4914,-3.5037,-3.4945,-3.4951,-3.4956,-3.4958,-3.5247,-3.525,0,0,0,0,0,0,-3.4562,-3.4582,-3.4749,-3.4756,-3.4639,-3.4719,-3.4732,-3.4773,-3.4837,-3.4844,-3.4789,-3.4785,-3.4894,-3.4906,-3.4918,-3.5043,-3.4952,-3.4959,-3.4963,-3.5244,-3.5248,-3.5251,0,0,0,0,0,0,-3.4557,-3.4577,-3.4745,-3.4669,-3.469,-3.4726,-3.4772,-3.4777,-3.4806,-3.4848,-3.4854,-3.4812,-3.4892,-3.4908,-3.4999,-3.5047,-3.4962,-3.4969,-3.524,-3.5245,-3.5249,-3.5294,0,0,0,0,0,0,-3.4551,-3.4576,-3.4615,-3.467,-3.4694,-3.4823,-3.4775,-3.4781,-3.4819,-3.4815,-3.4872,-3.4879,-3.4891,-3.4988,-3.5006,-3.5055,-3.4975,-3.5235,-3.5242,-3.5248,-3.5288,-3.53,-3.531,0,0,0,0,0,-3.4543,-3.4623,-3.4617,-3.4637,-3.4744,-3.4826,-3.484,-3.4853,-3.4823,-3.4862,-3.489,-3.4877,-3.5039,-3.4998,-3.5018,-3.507,-3.5232,-3.524,-3.5247,-3.5284,-3.5298,-3.531,0,0,0,0,0,0,-3.4572,-3.463,-3.4624,-3.4724,-3.4771,-3.4823,-3.4873,-3.4867,-3.4922,-3.4917,-3.493,-3.4943,-3.5036,-3.5062,-3.5015,-3.5174,-3.5132,-3.5144,-3.5152,-3.5166,-3.5177,-3.5168,-3.4981,0,0,0,0,0,-3.459,-3.4652,-3.47,-3.4783,-3.4807,-3.4836,-3.4873,-3.4879,-3.4927,-3.4946,-3.498,-3.5028,-3.5089,-3.513,-3.5189,-3.5293,-3.5305,-3.5339,-3.535,-3.5358,-3.5368,-3.5425,-3.5441,-3.5276,-3.5276,-3.5275,0,0,-3.4627,-3.4667,-3.4705,-3.479,-3.4827,-3.489,-3.4853,-3.4922,-3.4969,-3.4957,-3.5044,-3.5071,-3.5125,-3.5223,-3.5268,-3.5248,-3.5417,-3.5368,-3.5374,-3.5379,-3.5435,-3.545,-3.5464,-3.5281,-3.528,-3.5279,0,0,-3.4728,-3.4765,-3.4839,-3.4877,-3.4933,-3.4952,-3.497,-3.5024,-3.5042,-3.513,-3.5122,-3.5179,-3.5285,-3.5324,-3.5358,-3.5477,-3.5467,-3.5496,-3.5551,-3.5607,-3.562,-3.5631,-3.5673,-3.5688,-3.5505,-3.5506,-3.5506,0,-3.4768,-3.4864,-3.4878,-3.4948,-3.4986,-3.4979,-3.5054,-3.509,-3.5162,-3.5188,-3.5165,-3.5299,-3.5335,-3.5442,-3.5471,-3.5499,-3.552,-3.5488,-3.5617,-3.5628,-3.5639,-3.5679,-3.5695,-3.5509,-3.5508,-3.5508,-3.5508,0,-3.491,-3.4977,-3.503,-3.51,-3.5144,-3.5217,-3.5242,-3.5285,-3.5288,-3.531,-3.5401,-3.5444,-3.5512,-3.5538,-3.5542,-3.5647,-3.5633,-3.5613,-3.5571,-3.5658,-3.5696,-3.5711,-3.5513,-3.5512,-3.5511,-3.551,0,0,-3.5029,-3.5108,-3.5127,-3.516,-3.5222,-3.5274,-3.5347,-3.5414,-3.5451,-3.5502,-3.5563,-3.5654,-3.5637,-3.5675,-3.5684,-3.5733,-3.5824,-3.5708,-3.5709,-3.5727,-3.5942,-3.5955,-3.5972,-3.5819,-3.5822,-3.5824,-3.5937,0,-3.5135,-3.5263,-3.5279,-3.5393,-3.5455,-3.545,-3.5514,-3.5559,-3.5582,-3.5639,-3.5665,-3.5729,-3.5702,-3.5725,-3.5774,-3.5802,-3.5867,-3.5795,-3.5875,-3.5878,-3.586,-3.5992,-3.6006,-3.611,-3.5952,-3.5954,-3.5956,0,-3.5275,-3.5331,-3.5451,-3.5506,-3.5533,-3.5589,-3.5653,-3.5707,-3.5759,-3.5772,-3.5816,-3.5819,-3.5895,-3.5851,-3.5956,-3.5906,-3.5941,-3.596,-3.5965,-3.5971,-3.5921,-3.6001,-3.6143,-3.6158,-3.598,-3.5978,-3.5976,0,-3.5349,-3.5454,-3.554,-3.5568,-3.5635,-3.5675,-3.5704,-3.5754,-3.5793,-3.5849,-3.5875,-3.5939,-3.5974,-3.6023,-3.6043,-3.601,-3.6147,-3.6105,-3.616,-3.6159,-3.6187,-3.6184,-3.6336,-3.6212,-3.6212,-3.6212,-3.6211,0,-3.5465,-3.5538,-3.5574,-3.5626,-3.5709,-3.5727,-3.5808,-3.5837,-3.5881,-3.5939,-3.594,-3.5994,-3.6018,-3.6077,-3.6093,-3.6177,-3.6193,-3.6206,-3.6209,-3.6205,-3.6203,-3.6226,-3.6219,-3.6216,-3.6215,-3.6214,-3.6213,0,-3.556,-3.5587,-3.568,-3.5736,-3.5752,-3.5811,-3.5859,-3.591,-3.5934,-3.6007,-3.6026,-3.6063,-3.6132,-3.6158,-3.6242,-3.6253,-3.635,-3.6348,-3.6332,-3.6332,-3.6385,-3.6379,-3.6555,-3.6579,-3.6441,-3.6442,-3.6443,0,-3.5631,-3.5687,-3.575,-3.5789,-3.5821,-3.5884,-3.5925,-3.5946,-3.5988,-3.6053,-3.6096,-3.6165,-3.6221,-3.6332,-3.6367,-3.6432,-3.643,-3.6488,-3.644,-3.6434,-3.643,-3.6425,-3.6431,-3.6496,-3.6497,-3.6498,-3.6499,0,-3.5754,-3.5765,-3.5824,-3.5888,-3.5937,-3.5989,-3.6039,-3.6071,-3.61,-3.6148,-3.6219,-3.6262,-3.6349,-3.6418,-3.6484,-3.6515,-3.6512,-3.6514,-3.653,-3.6525,-3.6513,-3.6519,-3.6354,-3.651,-3.6508,-3.6508,-3.6507,-3.6507,-3.5838,-3.5888,-3.594,-3.6006,-3.6047,-3.6094,-3.6145,-3.6176,-3.6236,-3.6307,-3.6317,-3.6393,-3.6445,-3.6535,-3.6569,-3.6629,-3.6614,-3.6637,-3.6643,-3.6648,-3.6651,-3.6506,-3.6642,-3.6642,-3.6641,-3.6641,-3.6641,0,-3.5959,-3.5994,-3.6054,-3.6125,-3.6177,-3.6171,-3.6227,-3.6271,-3.6338,-3.6387,-3.6443,-3.6525,-3.6592,-3.6633,-3.6701,-3.6741,-3.6741,-3.6758,-3.6754,-3.6761,-3.6661,-3.664,-3.6757,-3.6757,-3.6757,-3.6757,-3.6756,-3.6756,-3.6029,-3.6113,-3.6131,-3.6236,-3.627,-3.6345,-3.6377,-3.6421,-3.646,-3.6552,-3.6608,-3.6635,-3.6681,-3.6752,-3.6814,-3.6824,-3.6848,-3.6866,-3.6875,-3.678,-3.6768,-3.6757,-3.6737,-3.6872,-3.6872,-3.697,-3.6971,-3.6971]},{"header":{"parameterUnit":"m.s-1","parameterCategory":1,"la1":30.2991,"la2":30.254,"lo1":-89.0895,"lo2":-89.0444,"dy":0.0017,"dx":0.0017,"nx":28,"ny":28,"refTime":"2024-10-14T21:00:00:Z","depth":0,"parameterNumber":3,"parameterNumberName":"V-component_of_WINDS"},"data":[0,0,0,0,0,0,0,0,0,0,0,0,0,0,0,0,0,0,0,0,0,0,0,0,0,0,0,0,0,0,0,0,0,0,0,0,0,0,0,0,0,0,0,0,0,0,0,0,0,0,0,0,0,0,0,0,0,0,1.8441,1.8441,0,1.8428,1.8428,1.8428,1.841,1.8409,1.8409,1.8409,1.8393,1.8393,1.8392,0,0,0,0,0,0,0,0,0,0,0,0,0,1.8449,1.8449,1.8441,1.8441,1.8441,1.8428,1.8428,1.8428,1.841,1.8409,1.8409,1.8409,1.8393,1.8393,1.8392,0,0,0,0,0,0,0,0,0,0,0,0,0,1.8442,1.8449,1.8441,1.843,1.8429,1.8428,1.8428,1.8428,1.841,1.8409,1.8409,1.8408,1.8393,1.8393,1.8392,1.84,0,0,1.8392,1.8392,0,0,0,0,0,0,0,0,1.8442,1.8441,1.8432,1.8431,1.843,1.842,1.8425,1.8419,1.841,1.8417,1.8409,1.8408,1.8402,1.8401,1.84,1.84,1.8399,1.8392,1.8392,1.8392,1.8392,0,0,0,0,0,0,0,1.8443,1.8442,1.8436,1.8432,1.8431,1.8426,1.8424,1.8424,1.8412,1.8416,1.8415,1.8414,1.8401,1.84,1.8399,1.8399,1.8392,1.8392,1.8392,1.8391,1.8406,1.8407,0,0,0,0,0,0,1.8445,1.8442,1.8436,1.8436,1.8435,1.8426,1.8424,1.8424,1.8412,1.841,1.8414,1.8413,1.84,1.8399,1.8398,1.8408,1.8392,1.8391,1.8391,1.8406,1.8406,1.8407,0,0,0,0,0,0,1.8445,1.8445,1.8437,1.8439,1.8437,1.8426,1.8426,1.8424,1.8422,1.8411,1.8408,1.8415,1.84,1.8399,1.8401,1.8407,1.8391,1.8391,1.8405,1.8406,1.8407,1.8426,0,0,0,0,0,0,1.8445,1.8445,1.8448,1.8439,1.8437,1.844,1.8426,1.8424,1.8422,1.842,1.8411,1.8409,1.84,1.8401,1.84,1.8406,1.8391,1.8405,1.8406,1.8406,1.8425,1.8428,1.843,0,0,0,0,0,1.8446,1.8453,1.8448,1.8447,1.8441,1.844,1.8439,1.8429,1.8423,1.8426,1.8419,1.8409,1.8407,1.8401,1.84,1.8407,1.8404,1.8405,1.8406,1.8424,1.8427,1.843,0,0,0,0,0,0,1.8461,1.8451,1.8446,1.8451,1.8447,1.8437,1.844,1.8433,1.843,1.8428,1.8416,1.8414,1.8417,1.8412,1.8406,1.8414,1.8404,1.8405,1.8418,1.842,1.8423,1.8424,1.8391,0,0,0,0,0,1.8466,1.8466,1.8457,1.8462,1.8461,1.8451,1.845,1.8443,1.8438,1.8436,1.8429,1.8424,1.8422,1.8421,1.8419,1.8425,1.8422,1.8428,1.8431,1.8433,1.8434,1.8437,1.844,1.8411,1.8411,1.8411,0,0,1.8474,1.8469,1.8469,1.8465,1.8461,1.8462,1.845,1.845,1.8451,1.8436,1.8438,1.8433,1.8426,1.843,1.8432,1.8426,1.8442,1.8434,1.8436,1.8436,1.8439,1.8442,1.8444,1.8412,1.8411,1.8411,0,0,1.8489,1.8485,1.849,1.8486,1.8481,1.8475,1.8476,1.8468,1.8465,1.8467,1.8456,1.8456,1.8453,1.8449,1.8447,1.8464,1.8455,1.8463,1.8476,1.8479,1.8482,1.8484,1.849,1.8492,1.8464,1.8464,1.8464,0,1.85,1.8501,1.8492,1.8495,1.8493,1.8482,1.8486,1.8483,1.8477,1.8476,1.847,1.8468,1.8462,1.8466,1.847,1.8469,1.847,1.8464,1.8482,1.8484,1.8486,1.8492,1.8494,1.8465,1.8465,1.8465,1.8465,0,1.8515,1.8516,1.852,1.8516,1.8515,1.8518,1.851,1.851,1.8504,1.8499,1.8501,1.8495,1.8492,1.8492,1.8485,1.8496,1.8492,1.8485,1.8474,1.849,1.8495,1.8497,1.8467,1.8466,1.8466,1.8466,0,0,1.8538,1.8531,1.8532,1.8531,1.8526,1.8526,1.8529,1.8527,1.8528,1.8525,1.8527,1.8526,1.852,1.8517,1.851,1.8513,1.8528,1.8505,1.8505,1.851,1.8539,1.8545,1.8548,1.8522,1.8523,1.8523,1.854,0,1.8552,1.8558,1.8551,1.8558,1.8559,1.8549,1.8552,1.8549,1.8544,1.8544,1.8539,1.8539,1.853,1.8528,1.8531,1.8525,1.8533,1.8524,1.8524,1.8524,1.8526,1.855,1.8556,1.8572,1.8542,1.8542,1.8542,0,1.8569,1.8568,1.8576,1.8572,1.8572,1.8574,1.8573,1.8574,1.857,1.8567,1.8565,1.8558,1.856,1.8551,1.8554,1.8548,1.8548,1.8545,1.8546,1.8545,1.8534,1.855,1.8577,1.858,1.8545,1.8545,1.8545,0,1.8586,1.8587,1.8592,1.8591,1.8586,1.8588,1.8586,1.8582,1.8582,1.8581,1.858,1.8579,1.8578,1.8577,1.857,1.8563,1.8575,1.8564,1.8572,1.8572,1.8574,1.8574,1.8601,1.8574,1.8574,1.8574,1.8574,0,1.8602,1.8607,1.8599,1.8602,1.8608,1.86,1.8606,1.8603,1.86,1.8602,1.8593,1.8595,1.8585,1.8586,1.858,1.8584,1.8584,1.8581,1.8579,1.8582,1.8582,1.8581,1.858,1.8575,1.8575,1.8574,1.8574,0,1.8621,1.8616,1.8621,1.8617,1.8616,1.862,1.8616,1.8619,1.8614,1.8617,1.8618,1.861,1.8611,1.8604,1.8603,1.8599,1.8606,1.8603,1.8608,1.8607,1.8615,1.8614,1.8642,1.8646,1.8617,1.8617,1.8617,0,1.8632,1.8636,1.8633,1.8634,1.8633,1.8635,1.8635,1.8628,1.8629,1.8627,1.863,1.863,1.863,1.8632,1.8627,1.8626,1.8623,1.8632,1.8622,1.8625,1.8623,1.8623,1.8623,1.8634,1.8635,1.8635,1.8635,0,1.8652,1.8649,1.8651,1.8652,1.8653,1.8653,1.8653,1.8654,1.8647,1.8648,1.865,1.865,1.865,1.8651,1.865,1.8647,1.864,1.8639,1.864,1.8643,1.8646,1.8645,1.8614,1.8638,1.8637,1.8637,1.8637,1.8637,1.8667,1.867,1.8669,1.8672,1.8671,1.8671,1.8674,1.8671,1.8672,1.8673,1.8669,1.8671,1.8669,1.8667,1.8665,1.8667,1.8663,1.8665,1.8666,1.8666,1.8668,1.8646,1.8667,1.8667,1.8667,1.8667,1.8667,0,1.8686,1.8686,1.8688,1.8689,1.8691,1.8685,1.8685,1.8687,1.869,1.8689,1.869,1.8692,1.8693,1.8689,1.8689,1.8692,1.8689,1.8692,1.8692,1.8691,1.8672,1.8671,1.8695,1.8695,1.8695,1.8695,1.8695,1.8695,1.8697,1.8703,1.8701,1.8707,1.8706,1.871,1.871,1.871,1.871,1.8713,1.8715,1.8712,1.871,1.8711,1.8712,1.871,1.8711,1.8716,1.8713,1.8695,1.8693,1.869,1.8688,1.8716,1.8716,1.8733,1.8733,1.8733]}]]